Торри Пайнс

США     32°53′25″N   117°15′03″W
темп.,
°C
ветер,
м/с
пор.,
м/с
влажн.,
%
обл.,
%
осадки,
мм/ч
давл.,
гПа
погр.,
м
16 октября, сб
сб1623:00+22св23260 0.0 101640
02:00+21всв22230 0.0 101617
05:00+20всв22240 0.0 101512
08:00+20в22250 0.0 101518
11:00+25з11230 0.0 1015304
14:00+24зсз44280 0.0 1013338
17:00+23зсз34420 0.0 1013215
20:00+21юз114611 0.0 101417
17 октября, вс
вс1723:00+19з11608 0.0 101541
02:00+18зюз116810 0.0 101523
05:00+18ююв1158100 0.0 101411
08:00+19юз12569 0.0 101534
11:00+21зюз32480 0.0 1016430
14:00+20з43490 0.0 1014500
17:00+19з33540 0.0 1014417
20:00+18з22660 0.0 1015266
18 октября, пн
пн1823:00+17з22720 0.0 1016307
02:00+16зюз11765 0.0 1015364
05:00+16зсз12807 0.0 1015367
08:00+16з238010 0.1 1015409
11:00+18зюз436747 0.4 1016807
14:00+18зсз556599 0.1 1015796
17:00+17зсз5572100 0.1 1014746
20:00+16зсз33681 0.0 1015580
19 октября, вт
вт1923:00+15зсз22641 0.0 1016652
02:00+15зсз01650 0.0 1015567
05:00+14всв11670 0.0 1015300
08:00+15в11660 0.0 1016358
11:00+17з21560 0.0 1017691
14:00+17з43605 0.0 1016704
17:00+17з3264100 0.0 1015512
20:00+16з227098 0.0 1017347
20 октября, ср
ср2023:00+16ссз007298 0.0 1017298
02:00+15сз1172100 0.0 1017188
05:00+15ссв1272100 0.0 1017160
08:00+15ссз22695 0.0 1018198
11:00+18зсз32592 0.0 1019438
14:00+19зсз436299 0.0 1018455
17:00+18зсз336410 0.0 1017336
20:00+17сз337190 0.0 1018244